Content
SEND FEEDBACK

Daily
Averages
Monthly
Summary
United States of America

RAMAH, COLORADO


Home > North America > United States > Colorado
Elevation: 5450 feet     Latitude: 39 00N     Longitude: 103 44W

WEATHER
 
SELECT A DAY
Number of Records: 192,034;   Date Range: 1/1/95 - 9/20/14
 
SHARE

PRINT THIS DATA

[ ← Previous Day ]
WEATHER ALMANAC - JANUARY 23, 2013
[ Next Day → ]
[ °C ]   °F
Weather ElementAverageHighLow
Temperature36.2 °F64.9 °F (1:55 pm)12 °F (1:55 am)
Dewpoint4.6 °F16 °F (11:55 pm)-7.1 °F (1:55 pm)
Humidity34.8 %80 % (1:55 am)5 % (1:55 pm)
Barometer30.18 in30.30 in (6:55 am)30.10 in (3:55 pm)
Wind Speed4.6 mph11.5 mph (3:55 pm)
Weather ElementAverage
Visibility10 mi
Wind DirectionSSE (142.3 °)

Weather ElementTotal
Precipitation---
Heating Degree Days26.6 (Base 65)
Averaged from 22 records on January 23, 2013
WEATHER CONDITIONS BREAKOUT
WIND DIRECTION BREAKOUT
WEATHER BY HOUR - JANUARY 23, 2013
[ °C ]   °F
Local TimeTemperatureDewpointHumidityBarometerVisibilityWind DirectionWind SpeedGust SpeedPrecipitationEventsConditions
1:55 AM12.0 °F7.0 °F80 %30.18 in10.0 miNorth (360°)5.8 mphClear
2:55 AM12.0 °F5.0 °F73 %30.18 in10.0 miNNW (330°)3.5 mphClear
3:55 AM23.0 °F1.9 °F40 %30.12 in10.0 miNNW (340°)5.8 mphClear
4:55 AM30.9 °F-2.0 °F24 %30.14 in10.0 miVariable4.6 mphClear
5:55 AM25.0 °F-2.0 °F31 %30.23 in10.0 miNNW (330°)6.9 mphClear
6:55 AM17.1 °F3.0 °F54 %30.30 in10.0 miNNW (330°)5.8 mphClear
7:55 AM36.0 °F-2.0 °F20 %30.23 in10.0 miVariable3.5 mphClear
8:55 AM39.9 °F3.9 °F22 %30.24 in10.0 miNorth (10°)4.6 mphClear
9:55 AM50.0 °F1.0 °F13 %30.19 in10.0 miWNW (300°)3.5 mphClear
10:55 AM57.0 °F3.0 °F11 %30.19 in10.0 miVariable4.6 mphClear
11:55 AM61.0 °F1.0 °F9 %30.14 in10.0 miNorth (350°)4.6 mphClear
12:55 PM63.0 °F5.0 °F10 %30.11 in10.0 miNE (50°)3.5 mphClear
1:55 PM64.9 °F-7.1 °F5 %30.11 in10.0 miEast (80°)6.9 mphClear
3:55 PM55.9 °F0.0 °F10 %30.10 in10.0 miEast (80°)11.5 mphClear
4:55 PM44.1 °F5.0 °F20 %30.13 in10.0 miEast (90°)8.1 mphClear
5:55 PM37.9 °F3.9 °F24 %30.20 in10.0 miCalmClear
6:55 PM30.9 °F9.0 °F40 %30.27 in10.0 miCalmClear
7:55 PM26.1 °F10.9 °F53 %30.22 in10.0 miCalmClear
8:55 PM28.9 °F10.0 °F45 %30.19 in10.0 miCalmClear
9:55 PM25.0 °F14.0 °F63 %30.19 in10.0 miSSE (150°)4.6 mphClear
10:55 PM28.0 °F14.0 °F56 %30.16 in10.0 miSouth (170°)4.6 mphClear
11:55 PM27.0 °F16.0 °F63 %30.13 in10.0 miSSE (160°)8.1 mphClear
Hourly data recorded from KLIC, located miles away from Ramah, Colorado







STORIES FROM OUR PARTNERS